TimeHST,TemperatureF,Dew PointF,Humidity,Sea Level PressureIn,VisibilityMPH,Wind Direction,Wind SpeedMPH,Gust SpeedMPH,PrecipitationIn,Events,Conditions,WindDirDegrees,DateUTC
12:54 AM,73.0,73.0,100,29.96,10.0,NNE,11.5,-,0.00,,Mostly Cloudy,30,2013-09-13 10:54:00
1:54 AM,73.0,71.1,93,29.94,10.0,North,6.9,-,N/A,,Mostly Cloudy,10,2013-09-13 11:54:00
2:54 AM,73.0,73.0,100,29.92,10.0,NE,5.8,-,N/A,,Mostly Cloudy,50,2013-09-13 12:54:00
3:54 AM,73.0,73.0,100,29.91,10.0,NNE,9.2,-,N/A,,Overcast,20,2013-09-13 13:54:00
4:54 AM,73.9,72.0,93,29.93,10.0,ENE,13.8,23.0,N/A,,Overcast,70,2013-09-13 14:54:00
5:54 AM,73.9,72.0,93,29.93,10.0,NE,8.1,16.1,N/A,,Scattered Clouds,50,2013-09-13 15:54:00
6:54 AM,75.0,71.1,87,29.94,10.0,NNE,11.5,-,N/A,,Overcast,30,2013-09-13 16:54:00
7:01 AM,75.2,71.6,89,29.94,10.0,NNE,11.5,18.4,N/A,,Scattered Clouds,30,2013-09-13 17:01:00
7:54 AM,77.0,71.1,82,29.95,10.0,NE,10.4,25.3,N/A,,Scattered Clouds,40,2013-09-13 17:54:00
8:54 AM,79.0,70.0,74,29.96,10.0,ENE,18.4,23.0,N/A,,Scattered Clouds,60,2013-09-13 18:54:00
9:54 AM,82.0,70.0,67,29.96,10.0,NE,12.7,19.6,N/A,,Clear,40,2013-09-13 19:54:00
10:54 AM,82.0,71.1,69,29.95,10.0,NNE,15.0,25.3,N/A,,Partly Cloudy,30,2013-09-13 20:54:00
11:54 AM,84.0,70.0,63,29.93,10.0,NE,17.3,26.5,N/A,,Clear,50,2013-09-13 21:54:00
12:54 PM,84.9,72.0,65,29.91,10.0,NE,20.7,27.6,N/A,,Partly Cloudy,50,2013-09-13 22:54:00
1:54 PM,84.9,68.0,57,29.89,10.0,NNE,13.8,26.5,N/A,,Partly Cloudy,30,2013-09-13 23:54:00
2:54 PM,82.9,71.1,67,29.89,10.0,NNE,11.5,26.5,N/A,,Scattered Clouds,20,2013-09-14 00:54:00
3:54 PM,82.0,71.1,69,29.89,10.0,NE,16.1,23.0,N/A,,Partly Cloudy,40,2013-09-14 01:54:00
4:54 PM,81.0,71.1,72,29.89,10.0,NE,16.1,24.2,N/A,,Partly Cloudy,50,2013-09-14 02:54:00
5:54 PM,78.1,71.1,79,29.91,10.0,NNE,11.5,20.7,N/A,,Clear,30,2013-09-14 03:54:00
6:54 PM,75.9,71.1,85,29.93,10.0,NNE,11.5,18.4,N/A,,Mostly Cloudy,20,2013-09-14 04:54:00
7:54 PM,75.9,70.0,82,29.95,10.0,NE,9.2,-,N/A,,Scattered Clouds,40,2013-09-14 05:54:00
8:54 PM,75.0,69.1,82,29.96,10.0,NNE,6.9,-,N/A,,Clear,20,2013-09-14 06:54:00
9:54 PM,75.0,70.0,84,29.96,10.0,NE,8.1,-,N/A,,Clear,40,2013-09-14 07:54:00
10:54 PM,75.0,72.0,90,29.96,10.0,Variable,6.9,16.1,N/A,,Clear,0,2013-09-14 08:54:00
11:54 PM,75.0,72.0,90,29.94,10.0,NE,8.1,-,N/A,,Partly Cloudy,40,2013-09-14 09:54:00